Flag for Canada Weather past 2 weeks in Resolute Bay, Nunavut Territory, Canada

Now
-6 °F

Passing clouds.


Feels Like: -15 °F
Forecast: -8 / 2 °F
Wind: 3 mph from Northeast

Location: Resolute


UV Index: 0 (Low)

Visibility: 15 mi


Pressure: 30.24 "Hg

Humidity: 70%

Dew point: -13 °F

Location of Resolute BayLocation

Historic Weather in Resolute Bay

°F

Resolute Bay temperature yesterday

Maximum temperature yesterday: -8 °F (at 12:00 PM)
Minimum temperature yesterday: -24 °F (at 8:00 AM)
Average temperature yesterday: -13 °F

Past Weeks' High & Low Weather Summary

 TemperatureHumidityPressure
High9 °F (Apr 18, 6:00 PM)92% (Apr 18, 3:00 PM)30.24 "Hg (Apr 18, 3:00 PM)
Low-24 °F (Apr 20, 8:00 AM)48% (Apr 11, 8:00 AM)29.71 "Hg (Apr 11, 2:00 PM)
Average-10 °F68%29.97 "Hg
* Reported Apr 6 7:00 AM — Apr 21 7:00 AM, Resolute Bay, Weather by CustomWeather, © 2014

Note: Actual official high and low records may vary slightly from our data, if they occured in-between our weather recording intervals... More about our weather records

Advertising

Historic Weather Conditions — Data for Previous 24 hours

 ConditionsComfort  
Time TempWeatherWind HumidityBarometerVisibility
7:00 AM
Apr 21
-6 °FPassing clouds.3 mph70%30.24 "Hg15 mi
6:00 AM-9 °FPassing clouds.3 mph77%30.24 "Hg15 mi
5:00 AM-11 °FPassing clouds.8 mph70%30.24 "Hg15 mi
4:00 AM-13 °FPassing clouds.8 mph69%30.24 "Hg15 mi
3:00 AM-15 °FPassing clouds.8 mph63%30.23 "Hg15 mi
2:00 AM-18 °FPassing clouds.2 mph69%30.23 "Hg15 mi
1:00 AM-17 °FClear.6 mph69%30.23 "Hg15 mi
12:00 AM-17 °FClear.2 mph69%30.22 "Hg15 mi
11:00 PM
Apr 20
-17 °FPassing clouds.6 mph69%30.22 "Hg15 mi
10:00 PM-15 °FPassing clouds.8 mph69%30.22 "Hg15 mi
9:00 PM-11 °FPassing clouds.6 mph70%30.22 "Hg15 mi
8:00 PM-11 °FPassing clouds.6 mph63%30.22 "Hg15 mi
7:00 PM-9 °FPassing clouds.6 mph70%30.22 "Hg15 mi
6:00 PM-9 °FPassing clouds.6 mph70%30.22 "Hg15 mi
5:00 PM-8 °FPassing clouds.6 mph70%30.22 "Hg15 mi
4:00 PM-8 °FPassing clouds.7 mph70%30.21 "Hg15 mi
3:00 PM-9 °FPassing clouds.7 mph70%30.20 "Hg15 mi
2:00 PM-9 °FSunny.8 mph70%30.19 "Hg15 mi
1:00 PM-11 °FSunny.5 mph70%30.19 "Hg15 mi
12:00 PM-8 °FSunny.5 mph70%30.17 "Hg15 mi
11:00 AM-9 °FSunny.No wind70%30.17 "Hg15 mi
10:00 AM-13 °FSunny.5 mph69%30.16 "Hg15 mi
9:00 AM-22 °FPassing clouds.8 mph68%30.16 "Hg15 mi
8:00 AM-24 °FPassing clouds.9 mph61%30.15 "Hg15 mi
Weather by CustomWeather, © 2014

See weather overview